When you browse on this site, cookies collect data to enhance your experience and personalize the content and advertising you see.
Visit our Privacy Policy to learn more. By continuing to use the site, you agree to this use of cookies and data.
  • In Sweden
  • List of Countries
  • For 7 days
  • Water Temperature
  • Weather Map
  • Weather Widgets
  • user-avatar
    Login

    Hourly Weather Prutz

    Today, 25 May, Monday

    Time Temperature Precipitation Wind Pressure Humidity
    00:00 +3°C° 0 mm 1 mps 640 mmHg 92%
    01:00 +3°C° 0 mm 1 mps 640 mmHg 93%
    02:00 +3°C° 0 mm 1 mps 640 mmHg 93%
    03:00 +3°C° 0 mm 1 mps 640 mmHg 93%
    04:00 +3°C° 0 mm 1 mps 640 mmHg 93%
    05:00 +4°C° 0 mm 1 mps 640 mmHg 87%
    06:00 +6°C° 0 mm 1 mps 641 mmHg 82%
    07:00 +6°C° 0 mm 2 mps 641 mmHg 76%
    08:00 +7°C° 0 mm 2 mps 641 mmHg 72%
    09:00 +8°C° 0 mm 2 mps 642 mmHg 68%
    10:00 +10°C° 0 mm 2 mps 642 mmHg 64%
    11:00 +10°C° 0 mm 2 mps 642 mmHg 62%
    12:00 +11°C° 0 mm 3 mps 642 mmHg 60%
    13:00 +12°C° 0 mm 3 mps 641 mmHg 57%
    14:00 +11°C° 0.1 mm 3 mps 641 mmHg 59%
    15:00 +11°C° 0.1 mm 3 mps 641 mmHg 60%
    16:00 +11°C° 0.1 mm 3 mps 641 mmHg 61%
    17:00 +10°C° 0.1 mm 3 mps 641 mmHg 68%
    18:00 +9°C° 0.1 mm 3 mps 640 mmHg 76%
    19:00 +8°C° 0.1 mm 2 mps 640 mmHg 83%
    20:00 +7°C° 0.1 mm 2 mps 640 mmHg 88%
    21:00 +6°C° 0.1 mm 2 mps 640 mmHg 92%
    22:00 +5°C° 0.1 mm 2 mps 640 mmHg 97%
    23:00 +4°C° 0.1 mm 2 mps 641 mmHg 97%

    Tomorrow, 26 May, Tuesday

    Time Temperature Precipitation Wind Pressure Humidity
    00:00 +5°C° 0.1 mm 1 mps 641 mmHg 96%
    01:00 +5°C° 0.1 mm 1 mps 641 mmHg 96%
    02:00 +5°C° 0 mm 1 mps 641 mmHg 95%
    03:00 +4°C° 0 mm 1 mps 640 mmHg 94%
    04:00 +4°C° 0 mm 1 mps 640 mmHg 93%
    05:00 +5°C° 0 mm 1 mps 640 mmHg 87%
    06:00 +6°C° 0 mm 1 mps 641 mmHg 80%
    07:00 +7°C° 0 mm 1 mps 641 mmHg 74%
    08:00 +8°C° 0 mm 1 mps 641 mmHg 68%
    09:00 +9°C° 0 mm 2 mps 642 mmHg 61%
    10:00 +10°C° 0 mm 2 mps 642 mmHg 55%
    11:00 +12°C° 0 mm 2 mps 642 mmHg 51%
    12:00 +12°C° 0 mm 3 mps 642 mmHg 47%
    13:00 +13°C° 0 mm 3 mps 642 mmHg 44%
    14:00 +13°C° 0 mm 3 mps 642 mmHg 45%
    15:00 +13°C° 0 mm 3 mps 642 mmHg 46%
    16:00 +13°C° 0 mm 3 mps 642 mmHg 46%
    17:00 +12°C° 0 mm 3 mps 642 mmHg 54%
    18:00 +10°C° 0 mm 3 mps 642 mmHg 62%
    19:00 +9°C° 0 mm 3 mps 641 mmHg 69%
    20:00 +7°C° 0 mm 2 mps 641 mmHg 78%
    21:00 +6°C° 0 mm 1 mps 641 mmHg 86%
    22:00 +4°C° 0 mm 1 mps 640 mmHg 95%
    23:00 +4°C° 0 mm 1 mps 640 mmHg 94%

    Day after tomorrow, 27 May, Wednesday

    Time Temperature Precipitation Wind Pressure Humidity
    00:00 +3°C° 0 mm 1 mps 640 mmHg 92%
    01:00 +3°C° 0 mm 1 mps 640 mmHg 91%
    02:00 +3°C° 0 mm 1 mps 640 mmHg 88%
    03:00 +3°C° 0 mm 1 mps 639 mmHg 86%
    04:00 +3°C° 0 mm 1 mps 639 mmHg 83%
    05:00 +4°C° 0 mm 1 mps 640 mmHg 74%
    06:00 +6°C° 0 mm 1 mps 640 mmHg 65%
    07:00 +8°C° 0 mm 1 mps 641 mmHg 55%
    08:00 +10°C° 0 mm 1 mps 641 mmHg 48%
    09:00 +10°C° 0 mm 2 mps 642 mmHg 41%
    10:00 +13°C° 0 mm 2 mps 642 mmHg 34%
    11:00 +14°C° 0 mm 2 mps 642 mmHg 33%
    12:00 +15°C° 0 mm 2 mps 642 mmHg 32%
    13:00 +15°C° 0 mm 2 mps 643 mmHg 31%
    14:00 +15°C° 0 mm 2 mps 642 mmHg 33%
    15:00 +14°C° 0 mm 3 mps 642 mmHg 35%
    16:00 +14°C° 0 mm 3 mps 642 mmHg 37%
    17:00 +14°C° 0 mm 2 mps 641 mmHg 47%
    18:00 +13°C° 0 mm 2 mps 641 mmHg 56%
    19:00 +10°C° 0 mm 2 mps 641 mmHg 65%
    20:00 +8°C° 0 mm 2 mps 640 mmHg 74%
    21:00 +7°C° 0 mm 1 mps 640 mmHg 82%
    22:00 +4°C° 0 mm 0 mps 639 mmHg 91%
    23:00 +4°C° 0 mm 0 mps 639 mmHg 91%

    28 May, Thursday

    Time Temperature Precipitation Wind Pressure Humidity
    00:00 +3°C° 0 mm 0 mps 638 mmHg 91%
    01:00 +3°C° 0 mm 0 mps 638 mmHg 91%
    02:00 +3°C° 0 mm 0 mps 638 mmHg 90%
    03:00 +3°C° 0 mm 0 mps 638 mmHg 89%
    04:00 +3°C° 0 mm 0 mps 638 mmHg 88%
    05:00 +5°C° 0 mm 0 mps 638 mmHg 80%
    06:00 +7°C° 0 mm 0 mps 639 mmHg 72%
    07:00 +10°C° 0 mm 1 mps 639 mmHg 65%
    08:00 +11°C° 0 mm 1 mps 639 mmHg 57%
    09:00 +13°C° 0 mm 1 mps 640 mmHg 49%
    10:00 +14°C° 0 mm 2 mps 640 mmHg 41%
    11:00 +15°C° 0 mm 2 mps 640 mmHg 40%
    12:00 +15°C° 0 mm 2 mps 640 mmHg 40%
    13:00 +16°C° 0 mm 2 mps 640 mmHg 39%
    14:00 +16°C° 0.2 mm 3 mps 639 mmHg 46%
    15:00 +14°C° 0.2 mm 3 mps 639 mmHg 53%
    16:00 +14°C° 0.2 mm 3 mps 638 mmHg 60%
    17:00 +13°C° 0.4 mm 3 mps 638 mmHg 69%
    18:00 +12°C° 0.4 mm 2 mps 637 mmHg 79%
    19:00 +10°C° 0.4 mm 2 mps 637 mmHg 88%
    20:00 +9°C° 0 mm 2 mps 637 mmHg 91%
    21:00 +8°C° 0 mm 1 mps 636 mmHg 93%
    22:00 +7°C° 0 mm 1 mps 636 mmHg 96%
    23:00 +7°C° 0 mm 1 mps 636 mmHg 95%

    29 May, Friday

    Time Temperature Precipitation Wind Pressure Humidity
    00:00 +6°C° 0 mm 0 mps 636 mmHg 95%
    01:00 +5°C° 0 mm 0 mps 635 mmHg 95%
    02:00 +5°C° 0 mm 0 mps 635 mmHg 94%
    03:00 +4°C° 0 mm 0 mps 635 mmHg 94%
    04:00 +4°C° 0 mm 0 mps 634 mmHg 93%
    05:00 +5°C° 0 mm 0 mps 635 mmHg 88%
    06:00 +8°C° 0 mm 1 mps 635 mmHg 82%
    07:00 +10°C° 0 mm 1 mps 636 mmHg 77%
    08:00 +11°C° 0 mm 1 mps 636 mmHg 70%
    09:00 +13°C° 0 mm 2 mps 637 mmHg 64%
    10:00 +14°C° 0 mm 2 mps 637 mmHg 57%
    11:00 +15°C° 0.1 mm 2 mps 637 mmHg 55%
    12:00 +15°C° 0.1 mm 2 mps 637 mmHg 53%
    13:00 +16°C° 0.1 mm 2 mps 637 mmHg 51%
    14:00 +15°C° 0.4 mm 2 mps 637 mmHg 56%
    15:00 +14°C° 0.4 mm 3 mps 636 mmHg 61%
    16:00 +13°C° 0.4 mm 3 mps 636 mmHg 67%
    17:00 +13°C° 0.4 mm 2 mps 636 mmHg 72%
    18:00 +12°C° 0.4 mm 2 mps 636 mmHg 77%
    19:00 +10°C° 0.4 mm 2 mps 635 mmHg 82%
    20:00 +10°C° 0 mm 1 mps 635 mmHg 86%
    21:00 +8°C° 0 mm 1 mps 635 mmHg 91%
    22:00 +5°C° 0 mm 0 mps 634 mmHg 96%
    23:00 +5°C° 0 mm 0 mps 634 mmHg 96%

    30 May, Saturday

    Time Temperature Precipitation Wind Pressure Humidity
    00:00 +5°C° 0 mm 0 mps 634 mmHg 96%
    01:00 +4°C° 0 mm 0 mps 634 mmHg 96%
    02:00 +4°C° 0 mm 0 mps 634 mmHg 95%
    03:00 +4°C° 0 mm 0 mps 634 mmHg 95%
    04:00 +4°C° 0 mm 0 mps 633 mmHg 94%
    05:00 +6°C° 0 mm 0 mps 634 mmHg 88%
    06:00 +8°C° 0 mm 0 mps 635 mmHg 81%
    07:00 +9°C° 0 mm 0 mps 635 mmHg 75%
    08:00 +12°C° 0 mm 1 mps 636 mmHg 66%
    09:00 +14°C° 0 mm 1 mps 636 mmHg 56%
    10:00 +16°C° 0 mm 1 mps 637 mmHg 47%
    11:00 +16°C° 0 mm 2 mps 637 mmHg 44%
    12:00 +17°C° 0 mm 2 mps 637 mmHg 41%
    13:00 +18°C° 0 mm 2 mps 637 mmHg 38%
    14:00 +18°C° 0 mm 3 mps 637 mmHg 40%
    15:00 +17°C° 0 mm 3 mps 637 mmHg 43%
    16:00 +17°C° 0 mm 3 mps 636 mmHg 45%
    17:00 +16°C° 0.1 mm 3 mps 636 mmHg 54%
    18:00 +14°C° 0.1 mm 2 mps 636 mmHg 62%
    19:00 +13°C° 0.1 mm 2 mps 635 mmHg 71%
    20:00 +11°C° 0 mm 1 mps 635 mmHg 78%
    21:00 +9°C° 0 mm 1 mps 634 mmHg 85%
    22:00 +6°C° 0 mm 0 mps 634 mmHg 92%
    23:00 +6°C° 0 mm 0 mps 634 mmHg 93%
    Show more